^^
Datos históricos de la estación: Murcia-Puente Tocinos
Diario Informe para Febrero 6, 2019 Unidades:  Métrico    Inglés   Ambas
Diario Semanal Mensual Anual Configurable
  Máximo: Mínimo: Media:
Temperatura: 21.7 °C 7.5 °C 13.9 °C
Punto de rocio: 6.8 °C 2.5 °C 4.2 °C
Humedad: 71% 36% 54%
Velocidad viento: 13.7km/h 0.0km/h 5.3km/h
Racha viento: 22.2km/h - -
Viento- - South
Presión: 1025.3 hPa 1020.3 hPa -
Precipitación: 0.0 mm    
Historical Graphs
 
 
Tabla de datos para Febrero 6, 2019
Hora Temperatura Punto de rocio Presión Viento Velocidad viento Racha viento Humedad Intensidad lluvia(por hora) Nubes
00:00 11.7 °C 4.4 °C 1025.2 hPa SW 9.7 km/h 14.5 km/h 61% 0.0 mm CLR
00:05 11.7 °C 4.4 °C 1025.2 hPa SW 8.7 km/h 11.1 km/h 61% 0.0 mm CLR
00:10 11.6 °C 4.3 °C 1025.2 hPa SW 8.4 km/h 11.1 km/h 61% 0.0 mm CLR
00:15 11.6 °C 4.3 °C 1025.2 hPa SW 8.4 km/h 11.1 km/h 61% 0.0 mm CLR
00:20 11.6 °C 4.3 °C 1025.2 hPa SW 8.4 km/h 7.4 km/h 61% 0.0 mm CLR
00:25 11.5 °C 4.2 °C 1025.2 hPa SW 8.4 km/h 7.4 km/h 61% 0.0 mm CLR
00:30 11.4 °C 3.9 °C 1025.2 hPa WSW 5.0 km/h 9.3 km/h 60% 0.0 mm CLR
00:35 11.4 °C 3.9 °C 1025.2 hPa WSW 5.0 km/h 11.1 km/h 60% 0.0 mm CLR
00:40 11.4 °C 3.9 °C 1025.2 hPa WSW 6.9 km/h 9.3 km/h 60% 0.0 mm CLR
00:45 11.4 °C 3.9 °C 1025.2 hPa SW 6.9 km/h 7.4 km/h 60% 0.0 mm CLR
00:50 11.3 °C 3.8 °C 1025.2 hPa SSW 5.8 km/h 7.4 km/h 60% 0.0 mm CLR
00:55 11.4 °C 3.7 °C 1025.2 hPa SW 5.8 km/h 9.3 km/h 59% 0.0 mm CLR
01:00 11.4 °C 3.7 °C 1025.2 hPa SW 8.0 km/h 9.7 km/h 59% 0.0 mm CLR
01:05 11.4 °C 3.4 °C 1025.1 hPa SW 6.4 km/h 7.4 km/h 58% 0.0 mm CLR
01:10 11.4 °C 3.4 °C 1025.1 hPa South 5.0 km/h 5.8 km/h 58% 0.0 mm CLR
01:15 11.3 °C 3.3 °C 1025.1 hPa SSW 5.0 km/h 7.4 km/h 58% 0.0 mm CLR
01:20 11.2 °C 3.5 °C 1025.1 hPa SSE 5.0 km/h 7.4 km/h 59% 0.0 mm CLR
01:25 11.0 °C 3.5 °C 1025.1 hPa SSW 5.0 km/h 5.6 km/h 60% 0.0 mm CLR
01:30 10.8 °C 3.3 °C 1025.1 hPa SSW 3.9 km/h 5.8 km/h 60% 0.0 mm CLR
01:35 10.7 °C 3.5 °C 1025.0 hPa South 3.9 km/h 7.4 km/h 61% 0.0 mm CLR
01:40 10.6 °C 3.6 °C 1025.0 hPa SSW 3.9 km/h 5.6 km/h 62% 0.0 mm CLR
01:45 10.6 °C 3.6 °C 1025.0 hPa SSW 3.9 km/h 7.4 km/h 62% 0.0 mm CLR
01:50 10.6 °C 3.6 °C 1024.9 hPa SSW 4.7 km/h 5.6 km/h 62% 0.0 mm CLR
01:55 10.5 °C 3.5 °C 1024.9 hPa SSW 4.7 km/h 5.6 km/h 62% 0.0 mm CLR
02:00 10.4 °C 3.7 °C 1024.9 hPa South 3.2 km/h 8.0 km/h 63% 0.0 mm CLR
02:05 10.3 °C 3.6 °C 1025.0 hPa WSW 3.9 km/h 7.4 km/h 63% 0.0 mm CLR
02:10 10.2 °C 3.4 °C 1025.0 hPa WSW 4.7 km/h 3.7 km/h 63% 0.0 mm CLR
02:15 10.2 °C 3.7 °C 1025.0 hPa SE 4.7 km/h 7.4 km/h 64% 0.0 mm CLR
02:20 10.1 °C 3.6 °C 1024.9 hPa SE 2.9 km/h 3.9 km/h 64% 0.0 mm CLR
02:25 9.8 °C 3.5 °C 1024.9 hPa South 2.9 km/h 7.4 km/h 65% 0.0 mm CLR
02:30 9.6 °C 3.3 °C 1024.9 hPa SW 4.7 km/h 7.4 km/h 65% 0.0 mm CLR
02:35 9.7 °C 3.4 °C 1024.8 hPa SW 4.7 km/h 7.6 km/h 65% 0.0 mm CLR
02:40 9.8 °C 3.3 °C 1024.8 hPa SSW 5.8 km/h 7.4 km/h 64% 0.0 mm CLR
02:45 9.9 °C 3.4 °C 1024.8 hPa SSW 5.8 km/h   64% 0.0 mm CLR
02:50 9.9 °C 3.2 °C 1024.9 hPa SSW 3.2 km/h   63% 0.0 mm CLR
02:55 9.8 °C 3.3 °C 1024.9 hPa SSW 3.2 km/h 5.6 km/h 64% 0.0 mm CLR
03:00 9.8 °C 3.3 °C 1024.9 hPa SSW 3.2 km/h 8.0 km/h 64% 0.0 mm CLR
03:05 9.8 °C 3.3 °C 1024.8 hPa SSW 2.9 km/h 3.9 km/h 64% 0.0 mm CLR
03:10 9.7 °C 3.2 °C 1024.8 hPa SSW 2.9 km/h 5.6 km/h 64% 0.0 mm CLR
03:15 9.7 °C 3.2 °C 1024.8 hPa SSW 2.9 km/h 3.9 km/h 64% 0.0 mm CLR
03:20 9.7 °C 3.2 °C 1024.9 hPa SSW 3.2 km/h   64% 0.0 mm CLR
03:25 9.7 °C 3.4 °C 1024.9 hPa SSW 3.2 km/h   65% 0.0 mm CLR
03:30 9.7 °C 3.4 °C 1024.9 hPa Calm     65% 0.0 mm CLR
03:35 9.6 °C 3.3 °C 1024.9 hPa Calm     65% 0.0 mm CLR
03:40 9.6 °C 3.3 °C 1024.9 hPa Calm     65% 0.0 mm CLR
03:45 9.5 °C 3.2 °C 1024.9 hPa Calm     65% 0.0 mm CLR
03:50 9.3 °C 3.3 °C 1024.7 hPa Calm     66% 0.0 mm CLR
03:55 9.2 °C 3.2 °C 1024.7 hPa Calm     66% 0.0 mm CLR
04:00 9.1 °C 3.2 °C 1024.7 hPa Calm     67% 0.0 mm CLR
04:05 8.9 °C 3.1 °C 1024.7 hPa Calm     67% 0.0 mm CLR
04:10 8.7 °C 3.1 °C 1024.7 hPa Calm     68% 0.0 mm CLR
04:15 8.7 °C 3.1 °C 1024.7 hPa Calm   3.9 km/h 68% 0.0 mm CLR
04:20 8.7 °C 3.1 °C 1024.6 hPa SW 2.3 km/h 5.6 km/h 68% 0.0 mm CLR
04:25 8.7 °C 3.1 °C 1024.6 hPa SW 2.3 km/h 5.6 km/h 68% 0.0 mm CLR
04:30 8.8 °C 3.0 °C 1024.6 hPa SW 3.9 km/h 5.6 km/h 67% 0.0 mm CLR
04:35 8.9 °C 3.1 °C 1024.4 hPa SW 3.9 km/h 5.8 km/h 67% 0.0 mm CLR
04:40 9.1 °C 3.3 °C 1024.4 hPa SW 3.9 km/h 7.4 km/h 67% 0.0 mm CLR
04:45 9.1 °C 3.3 °C 1024.4 hPa WSW 3.9 km/h 7.4 km/h 67% 0.0 mm CLR
04:50 9.2 °C 3.2 °C 1024.3 hPa WSW 4.7 km/h 3.7 km/h 66% 0.0 mm CLR
04:55 9.2 °C 3.2 °C 1024.3 hPa WSW 4.7 km/h 3.9 km/h 66% 0.0 mm CLR
05:00 9.2 °C 3.2 °C 1024.3 hPa WSW 3.2 km/h 8.0 km/h 66% 0.0 mm CLR
05:05 9.3 °C 3.3 °C 1024.3 hPa WSW 2.9 km/h 5.6 km/h 66% 0.0 mm CLR
05:10 9.3 °C 3.1 °C 1024.3 hPa WSW 3.9 km/h 4.7 km/h 65% 0.0 mm CLR
05:15 9.3 °C 3.1 °C 1024.3 hPa WSW 3.9 km/h 7.4 km/h 65% 0.0 mm CLR
05:20 9.2 °C 3.2 °C 1024.3 hPa WSW 4.7 km/h 7.4 km/h 66% 0.0 mm CLR
05:25 9.0 °C 3.0 °C 1024.3 hPa South 4.7 km/h 7.4 km/h 66% 0.0 mm CLR
05:30 8.8 °C 2.8 °C 1024.3 hPa South 5.0 km/h 7.4 km/h 66% 0.0 mm CLR
05:35 8.7 °C 2.9 °C 1024.5 hPa South 5.0 km/h 9.3 km/h 67% 0.0 mm CLR
05:40 8.7 °C 2.9 °C 1024.5 hPa South 6.4 km/h 7.4 km/h 67% 0.0 mm CLR
05:45 8.7 °C 2.9 °C 1024.5 hPa South 6.4 km/h 5.6 km/h 67% 0.0 mm CLR
05:50 8.6 °C 2.8 °C 1024.6 hPa SSE 4.7 km/h 7.4 km/h 67% 0.0 mm CLR
05:55 8.3 °C 2.7 °C 1024.6 hPa SSE 4.7 km/h 7.4 km/h 68% 0.0 mm CLR
06:00 7.9 °C 2.6 °C 1024.6 hPa SSE 4.8 km/h 9.7 km/h 69% 0.0 mm CLR
06:05 7.8 °C 2.7 °C 1024.6 hPa SSE 5.8 km/h 7.4 km/h 70% 0.0 mm CLR
06:10 7.7 °C 2.6 °C 1024.6 hPa SSE 5.8 km/h 7.4 km/h 70% 0.0 mm CLR
06:15 7.6 °C 2.7 °C 1024.6 hPa SSE 5.8 km/h 7.4 km/h 71% 0.0 mm CLR
06:20 7.6 °C 2.7 °C 1024.7 hPa SSE 5.0 km/h 7.6 km/h 71% 0.0 mm CLR
06:25 7.5 °C 2.6 °C 1024.7 hPa SSE 5.0 km/h 7.4 km/h 71% 0.0 mm CLR
06:30 7.5 °C 2.6 °C 1024.7 hPa South 5.8 km/h 9.3 km/h 71% 0.0 mm CLR
06:35 7.6 °C 2.7 °C 1024.7 hPa South 5.8 km/h 7.4 km/h 71% 0.0 mm CLR
06:40 7.8 °C 2.9 °C 1024.7 hPa South 5.8 km/h 7.4 km/h 71% 0.0 mm CLR
06:45 7.9 °C 2.8 °C 1024.7 hPa South 5.8 km/h 7.4 km/h 70% 0.0 mm CLR
06:50 8.1 °C 2.8 °C 1024.6 hPa South 5.8 km/h 5.8 km/h 69% 0.0 mm CLR
06:55 8.1 °C 2.8 °C 1024.6 hPa South 5.8 km/h 5.8 km/h 69% 0.0 mm CLR
07:00 8.2 °C 2.8 °C 1024.6 hPa South 3.2 km/h 6.4 km/h 69% 0.0 mm CLR
07:05 8.2 °C 2.8 °C 1024.7 hPa South 4.7 km/h 5.6 km/h 69% 0.0 mm CLR
07:10 8.2 °C 2.8 °C 1024.7 hPa South 3.9 km/h 7.4 km/h 69% 0.0 mm CLR
07:15 8.2 °C 2.7 °C 1024.7 hPa South 3.9 km/h 7.4 km/h 68% 0.0 mm CLR
07:20 8.1 °C 2.8 °C 1024.8 hPa South 4.7 km/h 7.4 km/h 69% 0.0 mm CLR
07:25 7.9 °C 2.6 °C 1024.8 hPa South 4.7 km/h 7.6 km/h 69% 0.0 mm CLR
07:30 7.8 °C 2.7 °C 1024.8 hPa South 5.0 km/h 7.4 km/h 70% 0.0 mm CLR
07:35 7.7 °C 2.6 °C 1024.7 hPa South 5.0 km/h 7.4 km/h 70% 0.0 mm CLR
07:40 7.6 °C 2.5 °C 1024.7 hPa SSE 5.8 km/h 9.3 km/h 70% 0.0 mm CLR
07:45 7.6 °C 2.5 °C 1024.7 hPa SSE 5.8 km/h 9.3 km/h 70% 0.0 mm CLR
07:50 7.6 °C 2.5 °C 1024.8 hPa South 6.9 km/h 7.6 km/h 70% 0.0 mm CLR
07:55 7.6 °C 2.5 °C 1024.8 hPa SSW 6.9 km/h 9.3 km/h 70% 0.0 mm CLR
08:00 7.6 °C 2.5 °C 1024.8 hPa South 4.8 km/h 8.0 km/h 70% 0.0 mm CLR
08:05 7.6 °C 2.5 °C 1024.9 hPa South 5.8 km/h 9.5 km/h 70% 0.0 mm CLR
08:10 7.6 °C 2.7 °C 1024.9 hPa South 5.8 km/h 7.4 km/h 71% 0.0 mm CLR
08:15 7.6 °C 2.7 °C 1024.9 hPa SSE 5.8 km/h 7.4 km/h 71% 0.0 mm CLR
08:20 7.6 °C 2.7 °C 1025.0 hPa SSE 5.8 km/h 7.4 km/h 71% 0.0 mm CLR
08:25 7.6 °C 2.5 °C 1025.0 hPa SSE 5.8 km/h 7.4 km/h 70% 0.0 mm CLR
08:30 7.6 °C 2.5 °C 1025.0 hPa SSE 5.0 km/h 7.4 km/h 70% 0.0 mm CLR
08:35 7.6 °C 2.5 °C 1025.0 hPa South 5.0 km/h 7.4 km/h 70% 0.0 mm CLR
08:40 7.7 °C 2.6 °C 1025.0 hPa South 5.8 km/h 7.4 km/h 70% 0.0 mm CLR
08:45 7.8 °C 2.7 °C 1025.0 hPa South 5.8 km/h 5.6 km/h 70% 0.0 mm CLR
08:50 7.9 °C 2.8 °C 1025.1 hPa SSW 4.7 km/h 7.4 km/h 70% 0.0 mm CLR
08:55 8.2 °C 2.8 °C 1025.1 hPa South 4.7 km/h 7.4 km/h 69% 0.0 mm CLR
09:00 8.4 °C 2.8 °C 1025.1 hPa South 4.8 km/h 8.0 km/h 68% 0.0 mm CLR
09:05 8.7 °C 2.9 °C 1025.2 hPa SSE 5.0 km/h 7.4 km/h 67% 0.0 mm CLR
09:10 8.9 °C 3.1 °C 1025.2 hPa SSE 5.0 km/h 7.6 km/h 67% 0.0 mm CLR
09:15 9.1 °C 3.1 °C 1025.2 hPa SSE 5.0 km/h 5.6 km/h 66% 0.0 mm CLR
09:20 9.2 °C 3.2 °C 1025.3 hPa SSE 5.0 km/h 5.6 km/h 66% 0.0 mm CLR
09:25 9.5 °C 3.4 °C 1025.3 hPa SSE 5.0 km/h 5.6 km/h 66% 0.0 mm CLR
09:30 9.7 °C 3.4 °C 1025.3 hPa SSW 3.9 km/h 7.4 km/h 65% 0.0 mm CLR
09:35 10.0 °C 3.5 °C 1025.3 hPa SSW 3.9 km/h 9.3 km/h 64% 0.0 mm CLR
09:40 10.3 °C 3.6 °C 1025.3 hPa SSW 5.8 km/h 7.4 km/h 63% 0.0 mm CLR
09:45 10.6 °C 3.4 °C 1025.3 hPa WSW 5.8 km/h 7.4 km/h 61% 0.0 mm CLR
09:50 10.9 °C 3.7 °C 1025.3 hPa SSW 5.8 km/h 7.4 km/h 61% 0.0 mm CLR
09:55 11.2 °C 3.7 °C 1025.3 hPa SSW 5.8 km/h 7.4 km/h 60% 0.0 mm CLR
10:00 11.4 °C 3.7 °C 1025.3 hPa SW 4.8 km/h 11.3 km/h 59% 0.0 mm CLR
10:05 11.7 °C 3.7 °C 1025.2 hPa SW 5.0 km/h 7.4 km/h 58% 0.0 mm CLR
10:10 11.9 °C 3.7 °C 1025.2 hPa SW 5.8 km/h 11.1 km/h 57% 0.0 mm CLR
10:15 12.1 °C 3.6 °C 1025.2 hPa West 5.8 km/h 11.1 km/h 56% 0.0 mm CLR
10:20 12.3 °C 3.5 °C 1025.3 hPa West 6.4 km/h 9.3 km/h 55% 0.0 mm CLR
10:25 12.4 °C 3.6 °C 1025.3 hPa SSW 6.4 km/h 7.4 km/h 55% 0.0 mm CLR
10:30 12.6 °C 3.8 °C 1025.3 hPa WSW 5.8 km/h 7.4 km/h 55% 0.0 mm CLR
10:35 12.7 °C 3.9 °C 1025.2 hPa WSW 5.8 km/h 7.4 km/h 55% 0.0 mm CLR
10:40 12.9 °C 3.8 °C 1025.2 hPa WSW 5.0 km/h 9.5 km/h 54% 0.0 mm CLR
10:45 13.1 °C 4.0 °C 1025.2 hPa SW 5.0 km/h 7.4 km/h 54% 0.0 mm CLR
10:50 13.2 °C 3.8 °C 1025.2 hPa West 6.4 km/h 7.4 km/h 53% 0.0 mm CLR
10:55 13.3 °C 3.7 °C 1025.2 hPa WSW 6.4 km/h 9.3 km/h 52% 0.0 mm CLR
11:00 13.4 °C 3.7 °C 1025.2 hPa WSW 8.0 km/h 11.3 km/h 52% 0.0 mm CLR
11:05 13.5 °C 3.8 °C 1025.1 hPa SW 6.9 km/h 7.4 km/h 52% 0.0 mm CLR
11:10 13.7 °C 3.7 °C 1025.1 hPa WSW 5.0 km/h 7.4 km/h 51% 0.0 mm CLR
11:15 13.9 °C 3.9 °C 1025.1 hPa WSW 5.0 km/h 5.6 km/h 51% 0.0 mm CLR
11:20 14.3 °C 4.0 °C 1025.0 hPa WSW 3.2 km/h   50% 0.0 mm CLR
11:25 14.8 °C 4.2 °C 1025.0 hPa WSW 3.2 km/h 5.0 km/h 49% 0.0 mm CLR
11:30 15.2 °C 4.3 °C 1025.0 hPa SW 2.9 km/h 9.3 km/h 48% 0.0 mm CLR
11:35 15.3 °C 4.1 °C 1024.9 hPa SW 2.9 km/h 7.4 km/h 47% 0.0 mm CLR
11:40 15.3 °C 4.3 °C 1024.9 hPa WSW 4.7 km/h 5.6 km/h 48% 0.0 mm CLR
11:45 15.6 °C 4.3 °C 1024.9 hPa SW 4.7 km/h 3.7 km/h 47% 0.0 mm CLR
11:50 15.9 °C 4.3 °C 1024.9 hPa WNW 2.3 km/h 7.4 km/h 46% 0.0 mm CLR
11:55 16.1 °C 4.2 °C 1024.9 hPa WNW 2.3 km/h 3.7 km/h 45% 0.0 mm CLR
12:00 16.3 °C 4.3 °C 1024.9 hPa WNW 3.2 km/h 4.8 km/h 45% 0.0 mm CLR
12:05 16.5 °C 4.2 °C 1024.8 hPa WNW 2.9 km/h 3.7 km/h 44% 0.0 mm CLR
12:10 16.9 °C 4.6 °C 1024.8 hPa WSW 2.3 km/h 3.9 km/h 44% 0.0 mm CLR
12:15 17.3 °C 4.6 °C 1024.8 hPa ESE 2.3 km/h 3.7 km/h 43% 0.0 mm CLR
12:20 17.6 °C 4.5 °C 1024.4 hPa NNW 3.2 km/h 5.8 km/h 42% 0.0 mm CLR
12:25 17.6 °C 4.5 °C 1024.4 hPa NNW 3.2 km/h 7.4 km/h 42% 0.0 mm CLR
12:30 17.6 °C 4.5 °C 1024.4 hPa NW 3.9 km/h   42% 0.0 mm CLR
12:35 17.6 °C 4.2 °C 1024.1 hPa WSW 3.9 km/h 8.4 km/h 41% 0.0 mm CLR
12:40 17.5 °C 4.4 °C 1024.1 hPa West 3.2 km/h 9.3 km/h 42% 0.0 mm CLR
12:45 17.5 °C 4.4 °C 1024.1 hPa West 3.2 km/h 9.3 km/h 42% 0.0 mm CLR
12:50 17.6 °C 4.2 °C 1023.9 hPa West 5.0 km/h 9.3 km/h 41% 0.0 mm CLR
12:55 17.7 °C 4.6 °C 1023.9 hPa West 5.0 km/h 7.4 km/h 42% 0.0 mm CLR
13:00 17.8 °C 4.4 °C 1023.9 hPa WSW 3.2 km/h 6.4 km/h 41% 0.0 mm CLR
13:05 18.2 °C 4.4 °C 1023.7 hPa WSW 3.9 km/h 9.3 km/h 40% 0.0 mm CLR
13:10 18.3 °C 4.4 °C 1023.7 hPa West 3.2 km/h 5.6 km/h 40% 0.0 mm CLR
13:15 18.5 °C 4.3 °C 1023.7 hPa ESE 3.2 km/h 5.6 km/h 39% 0.0 mm CLR
13:20 18.8 °C 4.6 °C 1023.3 hPa East 3.2 km/h 7.4 km/h 39% 0.0 mm CLR
13:25 18.9 °C 4.6 °C 1023.3 hPa ENE 3.2 km/h 1.9 km/h 39% 0.0 mm CLR
13:30 19.1 °C 4.4 °C 1023.3 hPa ESE 3.2 km/h 5.8 km/h 38% 0.0 mm CLR
13:35 19.3 °C 4.6 °C 1023.1 hPa NW 3.2 km/h 3.7 km/h 38% 0.0 mm CLR
13:40 19.4 °C 4.7 °C 1023.1 hPa NE 2.9 km/h 7.4 km/h 38% 0.0 mm CLR
13:45 19.6 °C 4.5 °C 1023.1 hPa East 2.9 km/h 8.7 km/h 37% 0.0 mm CLR
13:50 19.4 °C 4.7 °C 1022.7 hPa East 3.9 km/h 7.4 km/h 38% 0.0 mm CLR
13:55 19.4 °C 4.7 °C 1022.7 hPa East 3.9 km/h 5.6 km/h 38% 0.0 mm CLR
14:00 19.6 °C 4.5 °C 1022.7 hPa East 3.2 km/h 8.0 km/h 37% 0.0 mm CLR
14:05 19.7 °C 4.6 °C 1022.5 hPa SSE 3.9 km/h 7.6 km/h 37% 0.0 mm CLR
14:10 19.8 °C 4.7 °C 1022.5 hPa SSE 5.0 km/h 9.3 km/h 37% 0.0 mm CLR
14:15 19.9 °C 4.8 °C 1022.5 hPa ESE 5.0 km/h 5.6 km/h 37% 0.0 mm CLR
14:20 20.0 °C 4.8 °C 1022.3 hPa SSW 4.7 km/h 7.4 km/h 37% 0.0 mm CLR
14:25 20.2 °C 5.1 °C 1022.3 hPa South 4.7 km/h 3.7 km/h 37% 0.0 mm CLR
14:30 20.4 °C 4.8 °C 1022.3 hPa South 3.2 km/h   36% 0.0 mm CLR
14:35 20.6 °C 5.4 °C 1022.0 hPa South 3.2 km/h 3.7 km/h 37% 0.0 mm CLR
14:40 20.8 °C 5.2 °C 1022.0 hPa East 2.3 km/h 3.9 km/h 36% 0.0 mm CLR
14:45 21.0 °C 5.3 °C 1022.0 hPa NE 2.3 km/h 6.4 km/h 36% 0.0 mm CLR
14:50 20.9 °C 5.3 °C 1021.7 hPa NNW 3.9 km/h 7.4 km/h 36% 0.0 mm CLR
14:55 20.9 °C 5.3 °C 1021.7 hPa NNE 3.9 km/h 5.6 km/h 36% 0.0 mm CLR
15:00 20.9 °C 5.3 °C 1021.7 hPa NNE 3.2 km/h 4.8 km/h 36% 0.0 mm CLR
15:05 21.1 °C 5.8 °C 1021.4 hPa SSE 3.2 km/h 7.4 km/h 37% 0.0 mm CLR
15:10 21.2 °C 5.5 °C 1021.4 hPa SE 3.9 km/h 3.7 km/h 36% 0.0 mm CLR
15:15 21.3 °C 5.6 °C 1021.4 hPa SSW 3.9 km/h 5.6 km/h 36% 0.0 mm CLR
15:20 21.4 °C 5.7 °C 1021.2 hPa NNE 3.2 km/h 11.1 km/h 36% 0.0 mm CLR
15:25 21.4 °C 6.1 °C 1021.2 hPa ENE 3.2 km/h 9.3 km/h 37% 0.0 mm CLR
15:30 21.4 °C 6.1 °C 1021.2 hPa NNE 5.8 km/h 7.4 km/h 37% 0.0 mm CLR
15:35 21.3 °C 6.0 °C 1021.0 hPa SE 5.8 km/h 9.3 km/h 37% 0.0 mm CLR
15:40 21.2 °C 5.9 °C 1021.0 hPa ESE 6.4 km/h 13.0 km/h 37% 0.0 mm CLR
15:45 21.1 °C 5.8 °C 1021.0 hPa NNE 6.4 km/h 7.6 km/h 37% 0.0 mm CLR
15:50 21.2 °C 5.9 °C 1020.8 hPa NE 6.9 km/h 9.3 km/h 37% 0.0 mm CLR
15:55 21.4 °C 5.7 °C 1020.8 hPa ESE 6.9 km/h 11.1 km/h 36% 0.0 mm CLR
16:00 21.6 °C 5.8 °C 1020.8 hPa East 8.0 km/h 12.9 km/h 36% 0.0 mm CLR
16:05 21.7 °C 6.4 °C 1020.7 hPa ENE 6.4 km/h 14.0 km/h 37% 0.0 mm CLR
16:10 21.6 °C 6.3 °C 1020.7 hPa SE 5.8 km/h 16.7 km/h 37% 0.0 mm CLR
16:15 21.4 °C 6.5 °C 1020.7 hPa ESE 5.8 km/h 16.7 km/h 38% 0.0 mm CLR
16:20 21.3 °C 6.4 °C 1020.6 hPa ESE 11.1 km/h 16.7 km/h 38% 0.0 mm CLR
16:25 21.3 °C 6.8 °C 1020.6 hPa ENE 11.1 km/h 20.4 km/h 39% 0.0 mm CLR
16:30 21.3 °C 6.4 °C 1020.6 hPa SE 13.7 km/h 16.7 km/h 38% 0.0 mm CLR
16:35 21.3 °C 6.8 °C 1020.6 hPa ESE 13.7 km/h 18.5 km/h 39% 0.0 mm CLR
16:40 21.3 °C 6.4 °C 1020.6 hPa SE 12.2 km/h 20.9 km/h 38% 0.0 mm CLR
16:45 21.2 °C 6.7 °C 1020.6 hPa ESE 12.2 km/h 16.7 km/h 39% 0.0 mm CLR
16:50 21.2 °C 6.3 °C 1020.6 hPa South 11.9 km/h 22.2 km/h 38% 0.0 mm CLR
16:55 21.0 °C 6.1 °C 1020.6 hPa SE 11.9 km/h 22.2 km/h 38% 0.0 mm CLR
17:00 21.0 °C 6.1 °C 1020.6 hPa SE 12.9 km/h 20.9 km/h 38% 0.0 mm CLR
17:05 20.9 °C 6.1 °C 1020.5 hPa SE 13.0 km/h 20.1 km/h 38% 0.0 mm CLR
17:10 20.9 °C 6.1 °C 1020.5 hPa SE 11.9 km/h 18.5 km/h 38% 0.0 mm CLR
17:15 20.7 °C 5.9 °C 1020.5 hPa ESE 11.9 km/h 18.5 km/h 38% 0.0 mm CLR
17:20 20.5 °C 5.3 °C 1020.4 hPa SE 13.0 km/h 18.5 km/h 37% 0.0 mm CLR
17:25 20.4 °C 5.6 °C 1020.4 hPa SSE 13.0 km/h 14.8 km/h 38% 0.0 mm CLR
17:30 20.3 °C 5.5 °C 1020.4 hPa ESE 13.0 km/h 16.7 km/h 38% 0.0 mm CLR
17:35 20.2 °C 5.4 °C 1020.3 hPa SE 13.0 km/h 11.1 km/h 38% 0.0 mm CLR
17:40 20.1 °C 5.3 °C 1020.3 hPa SE 10.3 km/h 13.0 km/h 38% 0.0 mm CLR
17:45 20.0 °C 5.2 °C 1020.3 hPa SE 10.3 km/h 16.7 km/h 38% 0.0 mm CLR
17:50 19.9 °C 5.2 °C 1020.4 hPa SE 10.3 km/h 14.8 km/h 38% 0.0 mm CLR
17:55 19.8 °C 5.1 °C 1020.4 hPa SE 10.3 km/h 16.7 km/h 38% 0.0 mm CLR
18:00 19.7 °C 5.0 °C 1020.4 hPa SE 11.3 km/h 16.1 km/h 38% 0.0 mm CLR
18:05 19.7 °C 5.0 °C 1020.5 hPa ESE 10.3 km/h 13.0 km/h 38% 0.0 mm CLR
18:10 19.5 °C 4.8 °C 1020.5 hPa SSE 9.5 km/h 14.8 km/h 38% 0.0 mm CLR
18:15 19.4 °C 4.7 °C 1020.5 hPa SSE 9.5 km/h 11.1 km/h 38% 0.0 mm CLR
18:20 19.3 °C 5.0 °C 1020.6 hPa SSE 9.5 km/h 7.4 km/h 39% 0.0 mm CLR
18:25 19.2 °C 4.9 °C 1020.6 hPa SSE 9.5 km/h 7.4 km/h 39% 0.0 mm CLR
18:30 19.1 °C 4.8 °C 1020.6 hPa South 6.4 km/h 9.3 km/h 39% 0.0 mm CLR
18:35 18.9 °C 4.6 °C 1020.8 hPa South 6.4 km/h 9.3 km/h 39% 0.0 mm CLR
18:40 18.8 °C 4.6 °C 1020.8 hPa SSW 7.6 km/h 11.1 km/h 39% 0.0 mm CLR
18:45 18.7 °C 4.4 °C 1020.8 hPa South 7.6 km/h 11.1 km/h 39% 0.0 mm CLR
18:50 18.6 °C 4.4 °C 1021.0 hPa South 7.6 km/h 9.3 km/h 39% 0.0 mm CLR
18:55 18.5 °C 4.3 °C 1021.0 hPa SSW 7.6 km/h 7.4 km/h 39% 0.0 mm CLR
19:00 18.4 °C 3.8 °C 1021.0 hPa SSW 4.8 km/h 8.0 km/h 38% 0.0 mm CLR
19:05 18.3 °C 4.1 °C 1021.1 hPa SE 5.0 km/h 9.3 km/h 39% 0.0 mm CLR
19:10 18.2 °C 4.0 °C 1021.1 hPa South 5.8 km/h 7.4 km/h 39% 0.0 mm CLR
19:15 18.2 °C 4.0 °C 1021.1 hPa South 5.8 km/h 7.4 km/h 39% 0.0 mm CLR
19:20 18.1 °C 3.6 °C 1021.1 hPa South 5.0 km/h 7.4 km/h 38% 0.0 mm CLR
19:25 18.0 °C 3.8 °C 1021.1 hPa South 5.0 km/h 3.7 km/h 39% 0.0 mm CLR
19:30 17.9 °C 4.1 °C 1021.1 hPa South 3.2 km/h   40% 0.0 mm CLR
19:35 17.7 °C 4.3 °C 1021.1 hPa South 3.2 km/h 3.7 km/h 41% 0.0 mm CLR
19:40 17.4 °C 4.0 °C 1021.1 hPa South 2.3 km/h 5.6 km/h 41% 0.0 mm CLR
19:45 17.2 °C 3.8 °C 1021.1 hPa South 2.3 km/h 5.6 km/h 41% 0.0 mm CLR
19:50 17.1 °C 3.7 °C 1021.1 hPa South 3.2 km/h 5.6 km/h 41% 0.0 mm CLR
19:55 16.9 °C 3.9 °C 1021.1 hPa South 3.2 km/h 5.6 km/h 42% 0.0 mm CLR
20:00 16.8 °C 4.2 °C 1021.1 hPa South 3.2 km/h 4.8 km/h 43% 0.0 mm CLR
20:05 16.6 °C 3.6 °C 1021.1 hPa South 2.9 km/h   42% 0.0 mm CLR
20:10 16.5 °C 3.9 °C 1021.1 hPa Calm     43% 0.0 mm CLR
20:15 16.4 °C 3.8 °C 1021.1 hPa Calm   5.6 km/h 43% 0.0 mm CLR
20:20 16.4 °C 4.4 °C 1021.1 hPa SW 2.3 km/h 7.6 km/h 45% 0.0 mm CLR
20:25 16.4 °C 4.4 °C 1021.1 hPa SW 2.3 km/h 9.3 km/h 45% 0.0 mm CLR
20:30 16.2 °C 4.9 °C 1021.1 hPa SW 5.8 km/h 9.5 km/h 47% 0.0 mm CLR
20:35 15.9 °C 4.6 °C 1021.1 hPa SW 5.8 km/h 7.4 km/h 47% 0.0 mm CLR
20:40 15.8 °C 4.8 °C 1021.1 hPa SW 6.4 km/h 7.4 km/h 48% 0.0 mm CLR
20:45 15.7 °C 5.0 °C 1021.1 hPa SW 6.4 km/h 9.3 km/h 49% 0.0 mm CLR
20:50 15.5 °C 4.8 °C 1021.3 hPa SSW 6.4 km/h 7.4 km/h 49% 0.0 mm CLR
20:55 15.4 °C 5.0 °C 1021.3 hPa SSW 6.4 km/h 5.6 km/h 50% 0.0 mm CLR
21:00 15.3 °C 4.9 °C 1021.3 hPa SSW 4.8 km/h 8.0 km/h 50% 0.0 mm CLR
21:05 15.2 °C 5.1 °C 1021.2 hPa SSW 5.0 km/h   51% 0.0 mm CLR
21:10 15.1 °C 5.1 °C 1021.2 hPa SSW 2.3 km/h 5.6 km/h 51% 0.0 mm CLR
21:15 14.8 °C 5.1 °C 1021.2 hPa North 2.3 km/h 5.6 km/h 52% 0.0 mm CLR
21:20 14.6 °C 5.1 °C 1021.2 hPa North 3.9 km/h 5.8 km/h 53% 0.0 mm CLR
21:25 14.4 °C 4.9 °C 1021.2 hPa NW 3.9 km/h 5.6 km/h 53% 0.0 mm CLR
21:30 14.4 °C 4.9 °C 1021.2 hPa WNW 3.9 km/h 5.6 km/h 53% 0.0 mm CLR
21:35 14.5 °C 5.3 °C 1021.2 hPa West 3.9 km/h 7.4 km/h 54% 0.0 mm CLR
21:40 14.4 °C 5.2 °C 1021.2 hPa WSW 4.7 km/h 8.4 km/h 54% 0.0 mm CLR
21:45 14.4 °C 5.4 °C 1021.2 hPa West 4.7 km/h 14.8 km/h 55% 0.0 mm CLR
21:50 14.2 °C 5.3 °C 1021.2 hPa SW 7.6 km/h 13.0 km/h 55% 0.0 mm CLR
21:55 14.2 °C 5.6 °C 1021.2 hPa SSW 7.6 km/h 13.0 km/h 56% 0.0 mm CLR
22:00 14.1 °C 5.4 °C 1021.2 hPa SW 9.7 km/h 14.5 km/h 56% 0.0 mm CLR
22:05 14.1 °C 5.4 °C 1021.3 hPa South 8.7 km/h 9.3 km/h 56% 0.0 mm CLR
22:10 14.1 °C 5.4 °C 1021.3 hPa SSE 6.9 km/h 7.4 km/h 56% 0.0 mm CLR
22:15 13.9 °C 5.3 °C 1021.3 hPa SSE 6.9 km/h 9.3 km/h 56% 0.0 mm CLR
22:20 13.9 °C 5.3 °C 1021.3 hPa SSW 5.8 km/h 7.4 km/h 56% 0.0 mm CLR
22:25 13.8 °C 5.2 °C 1021.3 hPa SSE 5.8 km/h 7.4 km/h 56% 0.0 mm CLR
22:30 13.7 °C 5.3 °C 1021.3 hPa South 4.7 km/h 7.4 km/h 57% 0.0 mm CLR
22:35 13.6 °C 5.2 °C 1021.4 hPa SSE 4.7 km/h 5.8 km/h 57% 0.0 mm CLR
22:40 13.4 °C 5.3 °C 1021.4 hPa SSE 4.7 km/h 9.3 km/h 58% 0.0 mm CLR
22:45 13.2 °C 5.3 °C 1021.4 hPa SE 4.7 km/h 9.5 km/h 59% 0.0 mm CLR
22:50 13.0 °C 5.2 °C 1021.3 hPa SE 6.9 km/h 9.3 km/h 59% 0.0 mm CLR
22:55 12.9 °C 5.1 °C 1021.3 hPa SW 6.9 km/h 9.3 km/h 59% 0.0 mm CLR
23:00 12.9 °C 5.1 °C 1021.3 hPa South 4.8 km/h 9.7 km/h 59% 0.0 mm CLR
23:05 12.9 °C 5.1 °C 1021.5 hPa SSW 5.0 km/h 7.4 km/h 59% 0.0 mm CLR
23:10 12.9 °C 5.1 °C 1021.5 hPa SSW 5.0 km/h 7.4 km/h 59% 0.0 mm CLR
23:15 12.9 °C 5.1 °C 1021.5 hPa SSW 5.0 km/h 7.4 km/h 59% 0.0 mm CLR
23:20 13.0 °C 4.9 °C 1021.3 hPa SSW 5.8 km/h 11.1 km/h 58% 0.0 mm CLR
23:25 13.0 °C 4.9 °C 1021.3 hPa SSW 5.8 km/h 11.1 km/h 58% 0.0 mm CLR
23:30 12.9 °C 4.8 °C 1021.3 hPa SSW 7.6 km/h 9.5 km/h 58% 0.0 mm CLR
23:35 12.8 °C 4.7 °C 1021.3 hPa South 7.6 km/h 7.4 km/h 58% 0.0 mm CLR
23:40 12.7 °C 4.9 °C 1021.3 hPa SW 6.4 km/h 7.6 km/h 59% 0.0 mm CLR
23:45 12.7 °C 4.9 °C 1021.3 hPa SW 6.4 km/h 7.4 km/h 59% 0.0 mm CLR
23:50 12.6 °C 4.6 °C 1021.4 hPa SW 5.8 km/h 9.3 km/h 58% 0.0 mm CLR
23:55 12.6 °C 4.6 °C 1021.4 hPa WSW 5.8 km/h 7.4 km/h 58% 0.0 mm CLR
Murcia-Puente Tocinos, España
Compliments of Weather Underground - 2.75 mb

La estación de MeteoMurcia.com, publica sus datos en los siguientes proyectos:

Weather Underground PWS IMURCIAP2 Meteoclimatic www.awekas.at

W3Counter
Web Analytics